Content
SEND FEEDBACK

Daily
Averages
Monthly
Summary
United States of America

UMATAC, GUAM


Home > North America > United States > Guam
Elevation: 190 feet     Latitude: 13 17N     Longitude: 144 40E

WEATHER
 
SELECT A DAY
Number of Records: 342,166;   Date Range: 1/1/95 - 8/12/14
 
SHARE

PRINT THIS DATA

[ ← Previous Day ]
WEATHER ALMANAC - JUNE 8, 2014
[ Next Day → ]
[ °C ]   °F
Weather ElementAverageHighLow
Temperature83 °F86.2 °F (1:58 pm)78.8 °F (1:28 am)
Dewpoint76.3 °F77 °F (2:08 am)73.4 °F (11:03 pm)
Humidity80.4 %89 % (1:28 am)72 % (1:58 pm)
Barometer29.77 in29.85 in (10:38 pm)29.72 in (3:58 am)
Wind Speed9.8 mph12.7 mph (9:58 am)
Weather ElementAverage
Visibility10 mi
Wind DirectionESE (97.6 °)

Weather ElementTotal
Precipitation---
Cooling Degree Days17.5 (Base 65)
Growing Degree Days32.5 (Base 50)
Averaged from 66 records on June 8, 2014
WEATHER CONDITIONS BREAKOUT
WIND DIRECTION BREAKOUT
WEATHER BY HOUR - JUNE 8, 2014
[ °C ]   °F
Local TimeTemperatureDewpointHumidityBarometerVisibilityWind DirectionWind SpeedGust SpeedPrecipitationEventsConditions
1:28 AM78.8 °F75.2 °F89 %29.77 in10.0 miENE (70°)6.9 mphMostly Cloudy
1:33 AM78.8 °F75.2 °F89 %29.77 in10.0 miEast (80°)8.1 mphScattered Clouds
1:43 AM78.8 °F75.2 °F89 %29.77 in10.0 miEast (90°)5.8 mphMostly Cloudy
1:58 AM80.1 °F75.6 °F86 %29.73 in10.0 miEast (100°)6.9 mphScattered Clouds
2:08 AM80.6 °F77.0 °F89 %29.76 in10.0 miEast (100°)8.1 mphMostly Cloudy
2:18 AM80.6 °F75.2 °F84 %29.76 in10.0 miEast (100°)9.2 mphScattered Clouds
2:23 AM80.6 °F75.2 °F84 %29.76 in10.0 miEast (90°)8.1 mphMostly Cloudy
2:28 AM80.6 °F75.2 °F84 %29.76 in10.0 miEast (100°)6.9 mphMostly Cloudy
2:33 AM80.6 °F75.2 °F84 %29.76 in10.0 miEast (100°)5.8 mphScattered Clouds
2:58 AM79.5 °F74.7 °F85 %29.73 in10.0 miEast (90°)8.1 mphClear
3:58 AM79.3 °F74.3 °F84 %29.72 in10.0 miEast (100°)8.1 mphClear
4:58 AM79.7 °F75.4 °F87 %29.72 in10.0 miEast (90°)8.1 mphScattered Clouds
5:58 AM79.5 °F75.4 °F87 %29.73 in10.0 miEast (90°)9.2 mphPartly Cloudy
6:58 AM80.4 °F75.7 °F86 %29.75 in10.0 miEast (80°)6.9 mphScattered Clouds
7:58 AM81.5 °F75.7 °F83 %29.76 in10.0 miEast (100°)8.1 mphScattered Clouds
8:58 AM84.0 °F75.7 °F76 %29.76 in10.0 miEast (90°)10.4 mphMostly Cloudy
9:03 AM84.2 °F75.2 °F74 %29.79 in10.0 miESE (110°)10.4 mphScattered Clouds
9:48 AM84.2 °F77.0 °F79 %29.79 in10.0 miEast (90°)11.5 mphMostly Cloudy
9:58 AM84.0 °F76.3 °F77 %29.76 in10.0 miEast (100°)12.7 mphMostly Cloudy
10:13 AM82.4 °F77.0 °F84 %29.79 in10.0 miEast (100°)10.4 mphMostly Cloudy
10:18 AM84.2 °F77.0 °F79 %29.79 in10.0 miESE (110°)11.5 mphMostly Cloudy
10:23 AM84.2 °F77.0 °F79 %29.79 in10.0 miESE (110°)11.5 mphScattered Clouds
10:33 AM84.2 °F77.0 °F79 %29.79 in10.0 miESE (120°)11.5 mphMostly Cloudy
10:43 AM84.2 °F77.0 °F79 %29.78 in10.0 miESE (120°)10.4 mphMostly Cloudy
10:44 AM82.4 °F77.0 °F84 %29.78 in10.0 miESE (120°)11.5 mphRainLight Rain
10:54 AM84.2 °F77.0 °F79 %29.78 in10.0 miEast (100°)11.5 mphMostly Cloudy
10:58 AM83.5 °F76.8 °F80 %29.75 in10.0 miESE (110°)12.7 mph0.00 inMostly Cloudy
11:03 AM84.2 °F77.0 °F79 %29.78 in10.0 miESE (110°)10.4 mphMostly Cloudy
11:18 AM86.0 °F77.0 °F74 %29.78 in10.0 miESE (110°)12.7 mphScattered Clouds
11:33 AM86.0 °F77.0 °F74 %29.77 in10.0 miEast (90°)12.7 mphMostly Cloudy
11:38 AM86.0 °F77.0 °F74 %29.77 in10.0 miESE (110°)11.5 mphScattered Clouds
11:53 AM84.2 °F77.0 °F79 %29.77 in10.0 miEast (90°)10.4 mphMostly Cloudy
11:58 AM85.3 °F76.6 °F75 %29.74 in10.0 miEast (80°)10.4 mphScattered Clouds
12:08 PM86.0 °F77.0 °F74 %29.77 in10.0 miEast (90°)10.4 mphMostly Cloudy
12:13 PM86.0 °F77.0 °F74 %29.77 in10.0 miEast (90°)11.5 mphMostly Cloudy
12:18 PM84.2 °F77.0 °F79 %29.77 in10.0 miEast (100°)11.5 mphMostly Cloudy
12:23 PM84.2 °F77.0 °F79 %29.77 in10.0 miESE (110°)11.5 mphMostly Cloudy
12:28 PM86.0 °F77.0 °F74 %29.77 in10.0 miESE (120°)10.4 mphMostly Cloudy
12:43 PM86.0 °F77.0 °F74 %29.77 in10.0 miESE (110°)10.4 mphMostly Cloudy
12:48 PM86.0 °F77.0 °F74 %29.76 in10.0 miESE (120°)11.5 mphMostly Cloudy
12:58 PM86.0 °F76.8 °F74 %29.73 in10.0 miEast (90°)12.7 mphScattered Clouds
1:23 PM86.0 °F77.0 °F74 %29.76 in10.0 miESE (120°)12.7 mphMostly Cloudy
1:43 PM86.0 °F77.0 °F74 %29.76 in10.0 miEast (90°)11.5 mphScattered Clouds
1:58 PM86.2 °F76.3 °F72 %29.73 in10.0 miESE (110°)10.4 mphPartly Cloudy
2:43 PM86.0 °F77.0 °F74 %29.75 in10.0 miESE (120°)11.5 mphMostly Cloudy
2:48 PM84.2 °F77.0 °F79 %29.75 in10.0 miESE (120°)11.5 mphMostly Cloudy
2:53 PM84.2 °F77.0 °F79 %29.75 in10.0 miESE (110°)10.4 mphMostly Cloudy
2:58 PM84.7 °F76.8 °F77 %29.72 in10.0 miESE (120°)11.5 mphMostly Cloudy
3:03 PM86.0 °F77.0 °F74 %29.75 in10.0 miESE (120°)12.7 mphMostly Cloudy
3:18 PM86.0 °F77.0 °F74 %29.75 in10.0 miESE (120°)12.7 mphScattered Clouds
3:48 PM84.2 °F77.0 °F79 %29.75 in10.0 miESE (110°)8.1 mphLight Drizzle
3:58 PM83.7 °F77.0 °F80 %29.72 in10.0 miESE (120°)9.2 mph0.00 inLight Drizzle
3:59 PM84.2 °F77.0 °F79 %29.75 in10.0 miESE (120°)8.1 mphPartly Cloudy
4:58 PM84.6 °F76.3 °F76 %29.73 in10.0 miEast (100°)9.2 mph0.00 inClear
5:58 PM82.9 °F76.6 °F81 %29.74 in10.0 miEast (80°)6.9 mphScattered Clouds
6:58 PM81.5 °F76.6 °F85 %29.76 in10.0 miEast (90°)8.1 mphPartly Cloudy
7:58 PM81.0 °F76.3 °F86 %29.78 in10.0 miEast (80°)8.1 mphClear
8:58 PM80.4 °F75.9 °F86 %29.81 in10.0 miEast (90°)6.9 mphPartly Cloudy
9:58 PM80.6 °F76.1 °F86 %29.81 in10.0 miEast (80°)5.8 mphClear
10:38 PM80.6 °F77.0 °F89 %29.85 in10.0 miEast (80°)10.4 mphMostly Cloudy
10:43 PM80.6 °F77.0 °F89 %29.85 in10.0 miENE (70°)10.4 mphMostly Cloudy
10:48 PM80.6 °F75.2 °F84 %29.85 in10.0 miENE (60°)8.1 mphMostly Cloudy
10:53 PM80.6 °F75.2 °F84 %29.85 in10.0 miENE (70°)8.1 mphMostly Cloudy
10:58 PM80.6 °F75.4 °F84 %29.82 in10.0 miENE (60°)9.2 mphMostly Cloudy
11:03 PM80.6 °F73.4 °F79 %29.85 in10.0 miENE (60°)8.1 mphScattered Clouds
11:58 PM80.2 °F75.9 °F87 %29.81 in10.0 miENE (60°)5.8 mphClear
Hourly data recorded from PGUA, located miles away from Umatac, Guam







STORIES FROM OUR PARTNERS